VE3YF Weather Reports


time (UTC)temp
C
wind
direction
speed
KPH
gust
KPH
rain 1hr
cm
rain 24hr
cm
rain mn
cm
humidity
%
barometer
mb
20260504030054 8 184 3.2 12.9 0.00 0.00 0.00 64 1005.0
20260504024553 8 194 4.8 14.5 0.00 0.00 0.00 63 1005.2
20260504023059 9 186 4.8 14.5 0.00 0.00 0.00 62 1005.3
20260504021553 9 197 4.8 14.5 0.00 0.00 0.00 61 1005.4
20260504020055 9 192 3.2 14.5 0.00 0.00 0.00 60 1005.4
20260504014558 10 204 6.4 14.5 0.00 0.00 0.00 58 1005.5
20260504013113 10 201 6.4 19.3 0.00 0.00 0.00 55 1005.5
20260504011558 10 186 6.4 14.5 0.00 0.00 0.00 50 1005.5
20260504010114 10 244 4.8 12.9 0.00 0.00 0.00 47 1005.4
20260504004556 10 207 3.2 9.7 0.00 0.00 0.00 47 1005.1
20260504003058 10 0 0.0 11.3 0.00 0.00 0.00 44 1005.2
20260504001603 11 248 1.6 12.9 0.00 0.00 0.00 43 1004.9
20260504000059 11 253 4.8 12.9 0.00 0.00 0.00 41 1005.0
20260503234600 11 247 4.8 22.5 0.00 0.00 0.00 40 1005.0
20260503233102 11 281 6.4 16.1 0.00 0.00 0.00 38 1005.0
20260503231556 11 240 3.2 16.1 0.00 0.00 0.00 37 1004.8
20260503230055 12 182 3.2 19.3 0.00 0.00 0.00 36 1004.9
20260503224556 12 216 9.7 19.3 0.00 0.00 0.00 35 1004.9
20260503223058 12 248 6.4 16.1 0.00 0.00 0.00 33 1004.8
20260503221607 13 263 11.3 20.9 0.00 0.00 0.00 31 1004.6
20260503220105 13 202 9.7 24.1 0.00 0.00 0.00 30 1004.6
20260503214558 13 298 3.2 16.1 0.00 0.00 0.00 29 1004.5
20260503213059 13 234 8.0 19.3 0.00 0.00 0.00 28 1004.5
20260503211555 13 262 12.9 25.7 0.00 0.00 0.00 27 1004.6
20260503210056 14 163 3.2 22.5 0.00 0.00 0.00 27 1004.6
20260503204606 13 235 9.7 22.5 0.00 0.00 0.00 26 1004.8
20260503203105 13 248 8.0 20.9 0.00 0.00 0.00 26 1004.9
20260503201554 14 295 9.7 25.7 0.00 0.00 0.00 25 1005.2
20260503200055 13 244 6.4 24.1 0.00 0.00 0.00 26 1005.3
20260503194622 13 300 8.0 19.3 0.00 0.00 0.00 25 1005.7
20260503193103 13 240 8.0 22.5 0.00 0.00 0.00 25 1005.9
20260503191601 13 206 9.7 30.6 0.00 0.00 0.00 25 1006.1
20260503184557 13 292 6.4 30.6 0.00 0.00 0.00 27 1006.5
20260503183104 13 254 11.3 19.3 0.00 0.00 0.00 26 1006.7
20260503181553 13 188 9.7 25.7 0.00 0.00 0.00 25 1006.9
20260503180105 12 188 11.3 24.1 0.00 0.00 0.00 25 1007.1
20260503174554 13 279 6.4 16.1 0.00 0.00 0.00 26 1007.2
20260503173147 12 244 8.0 20.9 0.00 0.00 0.00 27 1007.4
20260503171553 12 281 4.8 24.1 0.00 0.00 0.00 27 1007.6
20260503130104 6 213 3.2 8.0 0.00 0.00 0.00 51 1010.7
20260503100113 -2 0 0.0 0.0 0.00 0.00 0.00 83 1010.8
20260503090104 -1 0 0.0 0.0 0.00 0.00 0.00 78 1011.0
20260503081600 0 0 0.0 0.0 0.00 0.00 0.00 73 1011.2
20260503071558 2 209 1.6 4.8 0.00 0.00 0.00 67 1011.2
20260503070107 2 0 0.0 4.8 0.00 0.00 0.00 67 1011.2
20260503054556 2 209 0.0 3.2 0.00 0.00 0.00 71 1011.5
20260503053056 2 0 0.0 0.0 0.00 0.00 0.00 72 1011.6
20260503051555 2 0 0.0 0.0 0.00 0.00 0.00 72 1011.8
20260503050058 2 0 0.0 0.0 0.00 0.00 0.00 71 1011.9
20260503044557 2 0 0.0 0.0 0.00 0.00 0.00 71 1012.0
20260503043101 2 0 0.0 0.0 0.00 0.00 0.00 70 1012.1
20260503041553 3 0 0.0 0.0 0.00 0.00 0.00 69 1012.0
20260503040056 3 0 0.0 0.0 0.00 0.00 0.00 66 1012.2
20260503034555 3 0 0.0 0.0 0.00 0.00 0.00 65 1012.1
20260503033055 3 0 0.0 0.0 0.00 0.00 0.00 64 1012.2
20260503031607 3 0 0.0 0.0 0.00 0.00 0.00 63 1012.3